TimeMST,TemperatureF,Dew PointF,Humidity,Sea Level PressureIn,VisibilityMPH,Wind Direction,Wind SpeedMPH,Gust SpeedMPH,PrecipitationIn,Events,Conditions,WindDirDegrees,DateUTC
12:15 AM,1.4,-7.6,66,30.63,1.8,Calm,Calm,-,N/A,,Clear,0,2013-01-18 07:15:00
12:35 AM,1.4,-4.0,78,30.64,0.2,East,3.5,-,N/A,,Overcast,80,2013-01-18 07:35:00
12:55 AM,-0.4,-9.4,66,30.64,0.2,Calm,Calm,-,N/A,,Overcast,0,2013-01-18 07:55:00
1:35 AM,-0.4,-7.6,72,30.64,0.5,Calm,Calm,-,N/A,,Overcast,0,2013-01-18 08:35:00
2:35 AM,-0.4,-9.4,66,30.65,0.2,Calm,Calm,-,N/A,,Overcast,0,2013-01-18 09:35:00
2:55 AM,-2.2,-7.6,78,30.65,0.2,Calm,Calm,-,N/A,,Overcast,0,2013-01-18 09:55:00
3:15 AM,-2.2,-9.4,71,30.65,0.2,Calm,Calm,-,N/A,,Overcast,0,2013-01-18 10:15:00
3:35 AM,-2.2,-9.4,71,30.64,0.2,Calm,Calm,-,N/A,,Overcast,0,2013-01-18 10:35:00
3:55 AM,-0.4,-7.6,72,30.64,0.2,Calm,Calm,-,N/A,,Overcast,0,2013-01-18 10:55:00
4:15 AM,-2.2,-9.4,71,30.63,0.2,Calm,Calm,-,N/A,,Overcast,0,2013-01-18 11:15:00
4:35 AM,-0.4,-9.4,66,30.62,0.2,Calm,Calm,-,N/A,,Overcast,0,2013-01-18 11:35:00
4:55 AM,-0.4,-7.6,72,30.62,0.2,Calm,Calm,-,N/A,,Overcast,0,2013-01-18 11:55:00
5:15 AM,-0.4,-7.6,72,30.62,0.2,Calm,Calm,-,N/A,,Overcast,0,2013-01-18 12:15:00
5:35 AM,-0.4,-5.8,78,30.61,0.2,Calm,Calm,-,N/A,,Overcast,0,2013-01-18 12:35:00
5:55 AM,-0.4,-5.8,78,30.62,0.2,Calm,Calm,-,N/A,,Overcast,0,2013-01-18 12:55:00
6:15 AM,1.4,-4.0,78,30.62,0.2,Calm,Calm,-,N/A,,Overcast,0,2013-01-18 13:15:00
6:35 AM,1.4,-5.8,72,30.61,0.2,Calm,Calm,-,N/A,,Overcast,0,2013-01-18 13:35:00
6:55 AM,1.4,-5.8,72,30.61,0.2,Calm,Calm,-,N/A,,Overcast,0,2013-01-18 13:55:00
7:15 AM,1.4,-4.0,78,30.62,0.2,Calm,Calm,-,N/A,,Overcast,0,2013-01-18 14:15:00
7:35 AM,1.4,-4.0,78,30.62,0.8,Calm,Calm,-,N/A,,Overcast,0,2013-01-18 14:35:00
7:55 AM,1.4,-4.0,78,30.62,0.8,Calm,Calm,-,N/A,,Overcast,0,2013-01-18 14:55:00
8:15 AM,3.2,-2.2,78,30.62,0.8,Calm,Calm,-,N/A,,Overcast,0,2013-01-18 15:15:00
8:35 AM,3.2,-2.2,78,30.63,0.8,Calm,Calm,-,N/A,,Overcast,0,2013-01-18 15:35:00
9:15 AM,3.2,-2.2,78,30.63,1.5,Calm,Calm,-,N/A,,Overcast,0,2013-01-18 16:15:00
9:35 AM,3.2,-2.2,78,30.64,1.5,Calm,Calm,-,N/A,,Overcast,0,2013-01-18 16:35:00
9:55 AM,3.2,-2.2,78,30.64,1.5,Calm,Calm,-,N/A,,Overcast,0,2013-01-18 16:55:00
10:15 AM,5.0,-0.4,78,30.64,0.8,Calm,Calm,-,N/A,,Overcast,0,2013-01-18 17:15:00
10:55 AM,6.8,1.4,79,30.65,0.8,Calm,Calm,-,N/A,,Overcast,0,2013-01-18 17:55:00
11:15 AM,8.6,3.2,79,30.65,1.0,Calm,Calm,-,N/A,,Overcast,0,2013-01-18 18:15:00
12:55 PM,8.6,6.8,92,30.61,1.2,Calm,Calm,-,N/A,,Overcast,0,2013-01-18 19:55:00
2:55 PM,12.2,6.8,79,30.57,1.5,North,3.5,-,N/A,,Overcast,360,2013-01-18 21:55:00
4:55 PM,8.6,1.4,73,30.56,2.0,NNW,4.6,-,N/A,,Clear,340,2013-01-18 23:55:00
5:55 PM,6.8,-2.2,67,30.57,2.0,NW,3.5,-,N/A,,Clear,320,2013-01-19 00:55:00
6:35 PM,6.8,-2.2,67,30.57,3.0,West,5.8,-,N/A,,Mostly Cloudy,270,2013-01-19 01:35:00
7:35 PM,6.8,-2.2,67,30.56,2.5,Calm,Calm,-,N/A,,Clear,0,2013-01-19 02:35:00
7:55 PM,3.2,-4.0,72,30.57,2.5,North,3.5,-,N/A,,Scattered Clouds,360,2013-01-19 02:55:00
8:15 PM,3.2,-4.0,72,30.58,2.5,North,5.8,-,N/A,,Mostly Cloudy,360,2013-01-19 03:15:00
8:35 PM,3.2,-4.0,72,30.57,2.5,Calm,Calm,-,N/A,,Partly Cloudy,0,2013-01-19 03:35:00
8:55 PM,1.4,-5.8,72,30.57,2.0,Calm,Calm,-,N/A,,Clear,0,2013-01-19 03:55:00
9:15 PM,3.2,-4.0,72,30.58,2.0,NW,3.5,-,N/A,,Clear,320,2013-01-19 04:15:00
10:15 PM,3.2,-4.0,72,30.58,2.5,WSW,3.5,-,N/A,,Clear,250,2013-01-19 05:15:00
10:35 PM,3.2,-2.2,78,30.58,2.0,Calm,Calm,-,N/A,,Clear,0,2013-01-19 05:35:00
10:55 PM,3.2,-4.0,72,30.58,2.0,WSW,3.5,-,N/A,,Clear,250,2013-01-19 05:55:00
11:15 PM,3.2,-5.8,66,30.57,2.5,West,3.5,-,N/A,,Clear,260,2013-01-19 06:15:00
11:35 PM,3.2,-5.8,66,30.58,2.5,Calm,Calm,-,N/A,,Clear,0,2013-01-19 06:35:00
11:55 PM,3.2,-4.0,72,30.58,2.5,Calm,Calm,-,N/A,,Clear,0,2013-01-19 06:55:00